This demonstration page uses our WeatherBlox Daily Observations layout. Learn more.

Left ArrowRight Arrow

41.55636, -103.73856

Hourly Observations for December 22, 2020

Temp ( °F °C ) Dew Point ( °F °C ) Humidity (%) Winds ( mph kmh ) Pressure ( in mb ) Visibility ( mi km ) Precip ( " mm )
12:56 am 00:56 Clear 43 5.9 26 -3.3 52 52 SSW 21 33 29.87 1011 10 16 0.00 0.00
1:56 am 01:56 Clear 39 4.1 27 -2.9 61 61 SSW 15 24 29.87 1011 10 16 0.00 0.00
2:56 am 02:56 Clear 42 5.4 26 -3.2 54 54 SSW 23 37 29.81 1010 10 16 0.00 0.00
3:56 am 03:56 Clear 42 5.4 26 -3.4 53 53 SSW 21 33 29.79 1009 10 16 0.00 0.00
5:56 am 05:56 Clear 43 6.1 24 -4.6 47 47 SSW 17 28 29.75 1008 10 16 0.00 0.00
6:56 am 06:56 Clear 42 5.8 23 -5 46 46 SSW 17 28 29.74 1007 10 16 0.00 0.00
7:56 am 07:56 Sunny 47 8.5 20 -6.6 34 34 W 9 15 29.70 1006 10 16 0.00 0.00
8:56 am 08:56 Sunny 51 10.8 23 -4.8 33 33 SW 10 17 29.66 1004 10 16 0.00 0.00
9:56 am 09:56 Sunny 55 12.9 22 -5.3 28 28 SW 7 11 29.63 1003 10 16 0.00 0.00
10:56 am 10:56 Sunny 56 13.2 22 -5.8 26 26 WSW 13 20 29.59 1002 10 16 0.00 0.00
11:56 am 11:56 Sunny 58 14.6 21 -6.2 23 23 W 14 22 29.52 1000 10 16 0.00 0.00
12:56 pm 12:56 Sunny 62 16.7 19 -7.4 19 19 W 16 26 29.44 997 10 16 0.00 0.00
1:56 pm 13:56 Sunny 64 17.6 18 -7.7 17 17 W 20 31 29.42 996 10 16 0.00 0.00
2:56 pm 14:56 Mostly Cloudy 62 16.4 19 -7 20 20 W 17 28 29.40 996 10 16 0.00 0.00
3:56 pm 15:56 Mostly Cloudy 59 14.8 20 -6.4 23 23 W 16 26 29.39 995 10 16 0.00 0.00
4:56 pm 16:56 Mostly Cloudy 54 12.1 23 -5 30 30 WNW 7 11 29.38 995 10 16 0.00 0.00
5:56 pm 17:56 Windy with Rain Showers Likely 46 7.7 34 1.2 64 64 WNW 31 50 29.49 999 10 16 0.00 0.00
6:56 pm 18:56 Mostly Cloudy 42 5.7 24 -4.2 49 49 W 32 52 29.51 999 10 16 0.00 0.00
7:56 pm 19:56 Mostly Cloudy 40 4.7 13 -10.4 33 33 WNW 35 56 29.53 1000 10 16 0.00 0.00
8:56 pm 20:56 Mostly Cloudy 35 1.9 8 -13.1 32 32 WNW 36 57 29.58 1002 10 16 0.00 0.00
9:56 pm 21:56 Windy with Rain Showers Likely 29 -1.4 26 -3.2 88 88 NW 32 52 29.66 1005 3 4 0.00 0.00
10:56 pm 22:56 Very Windy with Snow Showers Likely 28 -2.4 21 -6.3 75 75 NW 38 61 29.71 1006 10 16 0.00 0.00
11:57 pm 23:57 Windy with Snow Showers Likely 25 -3.8 19 -7.1 78 78 NW 31 50 29.76 1008 10 16 0.00 0.00

Powered by AerisWeather